SL-16 DEB, 24300

Orbit data source: Space-Track

SL-16 DEB, 24300 is space debris in LEO originally from a launch on Wed, 04 Sep 1996 UTC launched from the Tyuratam Missile And Space Complex (TTMTR). Debris objects in space refer to the collection of defunct objects orbiting the Earth. Examples of debris include non-operational satellites, rocket bodies, and fragments generated from explosions, collisions, or faulty payload assembly.

Loading next visibility...
Identifier
24300, 1996-051D
Orbit
LEO
Last TLE update
9 hours ago
Origin
Manufacturer
Yuzhnoe
Mission
Spacecraft
Bus & Motor
SEP MOTOR COVER, Unknown motor
Mass
~0 kg wet, ~1 kg dry
Launch date (UTC)
1996-09-04 (29 years ago)
Launch vehicle
Unknown
Launch site
Tyuratam Missile And Space Complex (TTMTR)
Object type
Payload
Rocket body
Debris
Shape & HBR
Unknown
Radar Cross Section
Small (<0.1 m²)

Expand to show TLE details & history

TLE from 9 hours ago
0 SL-16 DEB
1 24300U 96051D   25186.95132253  .00000055  00000-0  90050-4 0  9990
2 24300  71.0283  71.0586 0196376 220.3167 235.4234 13.74666394445704
Epoch: 2025-07-05T22:49Z
TLE epoch observation values (Epoch: 2025-07-05T22:49:54.266Z)
Latitude
70.73447°
Longitude
-93.70455°
Altitude
1,078.485 km
Speed
7.278 km/s
True Right ascension
11h 31m 48s
True Declination
70° 37' 54"
Sunlit
Object was in daylight at epoch
Visualization orbit readout
Latitude
21.19472°
Longitude
-23.95844°
Altitude
915.373 km
Speed
7.431 km/s
Apparent Right ascension
13h 10m 07s
Apparent Declination
-14° 23' 10"
Sunlit
Object is in full shadow
Visualization observer readout
Local Sidereal Time
19:50:07
Azimuth
265.048° W
Elevation
-16.763°
Doppler factor
1
Orbital elements
Apogee altitude
1,125.339 km
Perigee altitude
836.314 km
Semi-major axis
7,358.963 km
Eccentricity
0.01964
Inclination
71.0283°
RAAN
71.0586°
Arg. of periapsis
220.3167°
True anomaly
Unknown
Mean anomaly
235.4234°
Eccentric anomaly
Unknown
Mean motion
3.4381 °/min
Orbital period
104.71 mins
BSTAR
0.00009005
Loading maneuver chart data...
Loading SW <> Apogee altitude chart data...
Loading historical data...
Loading historical data...
Loading historical data...
Loading historical data...
Loading historical data...
Loading historical data...
Loading historical data...

SL-16 DEB Visibility forecast

Observer location: undefined°, undefined°

Span
Click to sort rows by Start time (UTC) header in descending order
Start Az.
Max El. time (UTC)
Max El. Az.
Max El.
End time (UTC)
End Az.
7 mins2025-07-06 15:57:23.003Z126.585° SE2025-07-06 16:01:23.003Z90.679° ESE15.209°2025-07-06 16:04:23.003Z64.519° ENE
12 mins2025-07-06 17:41:23.003Z202.34° SSW2025-07-06 17:47:23.003Z358.634° N44.884°2025-07-06 17:53:23.003Z22.546° NE
7 mins2025-07-06 19:32:23.003Z282.605° WNW2025-07-06 19:35:23.003Z312.426° NW18.119°2025-07-06 19:39:23.003Z350.168° N
10 mins2025-07-07 02:53:23.003Z347.752° N2025-07-07 02:58:23.003Z58.522° ENE39.648°2025-07-07 03:03:23.003Z137.617° SSE
7 mins2025-07-07 04:42:23.003Z293.844° NW2025-07-07 04:45:23.003Z256.937° W20.334°2025-07-07 04:49:23.003Z214.184° SW
|